Location: Siratepeler Tepesi
(39.1042°N, 32.0781°E)
Time: 10:24:23
(UTC+00:00)

Cosmos 1898 Rocket - Pass Details

Date: 11 April 2026
Orbit: 750 x 778 km, 74.0° (Epoch: 14 May)

Event Time Altitude Azimuth Distance (km) Brightness Sun altitude
Rises 17:14:49 0° 194° (SSW) 3,228 6.7 -10.1°
Reaches altitude 10° 17:17:11 10° 193° (SSW) 2,302 5.9 -10.6°
Maximum altitude 17:22:25 80° 107° (ESE) 780 3.4 -11.5°
Drops below altitude 10° 17:27:38 10° 21° (NNE) 2,299 6.0 -12.4°
Sets 17:30:00 0° 20° (NNE) 3,224 6.8 -12.9°
